Deelen, Netherlands

10:39 PM CEST on July 25, 2016 (GMT +0200)
Deelen Air Base

Weather History for EHDL - February, 2013

Change the Weather History Date:

Thursday, February 7, 2013

  Actual Average Record
Temperature  
Mean Temperature 32 °F -  
Max Temperature 37 °F 43 °F 51 °F (2001)
Min Temperature 28 °F 33 °F 5 °F (2012)
Degree Days  
Heating Degree Days 32    
Moisture  
Dew Point 32 °F    
Average Humidity 94    
Maximum Humidity 100    
Minimum Humidity 81    
Precipitation  
Precipitation 0.00 in - - ()
Sea Level Pressure  
Sea Level Pressure 29.81 in    
Wind  
Wind Speed 6 mph ()    
Max Wind Speed 10 mph    
Max Gust Speed 26 mph    
Visibility 5.9 miles    
Events Rain , Snow    
Averages and records for this station are not official NWS values.
T = Trace of Precipitation, MM = Missing Value Source: Averaged Metar Reports

Daily Weather History Graph

Daily Weather History Graph

Search for Another Location

Airport or City:

Trip Planner

Search our weather history database for the weather conditions in past years. The results will help you decide how hot, cold, wet, or windy it might be!

Date:

Astronomy

Feb. 07, 2013 Rise Set
Actual Time 8:06 AM CET 5:35 PM CET
Civil Twilight 7:30 AM CET 6:11 PM CET
Nautical Twilight 6:50 AM CET 6:51 PM CET
Astronomical Twilight 6:11 AM CET 7:30 PM CET
Moon 5:45 AM CET (2/7) 2:29 PM CET (2/7)
Length of Visible Light 10h 41m
Length of Day
9h 29m
Waning Crescent, 11% of the Moon is Illuminated
Feb 7
Waning Crescent
Feb 10
New
Feb 17
First Quarter
Feb 25
Full
Mar 4
Last Quarter

Hourly Weather History & Observations

Time (CET) Temp. Windchill Dew Point Humidity Pressure Visibility Wind Dir Wind Speed Gust Speed Precip Events Conditions
12:25 AM 32.0 °F 26.4 °F 32.0 °F 100% 29.71 in 6.2 mi WNW 5.8 mph - N/A   Partly Cloudy
12:55 AM 30.2 °F 24.3 °F 30.2 °F 100% 29.74 in 6.2 mi West 5.8 mph - N/A   Mostly Cloudy
1:25 AM 30.2 °F 24.3 °F 30.2 °F 100% 29.74 in 6.2 mi West 5.8 mph - N/A   Unknown
1:55 AM 28.4 °F 21.2 °F 28.4 °F 100% 29.74 in 6.2 mi West 6.9 mph - N/A   Mostly Cloudy
2:25 AM 32.0 °F 24.8 °F 30.2 °F 93% 29.74 in 6.2 mi West 8.1 mph - N/A   Overcast
2:55 AM 33.8 °F 27.0 °F 32.0 °F 93% 29.74 in 6.2 mi WNW 8.1 mph - N/A   Mostly Cloudy
3:25 AM 33.8 °F 27.0 °F 32.0 °F 93% 29.74 in 6.2 mi WNW 8.1 mph - N/A   Overcast
3:55 AM 33.8 °F 27.0 °F 32.0 °F 93% 29.74 in 6.2 mi West 8.1 mph - N/A   Overcast
4:25 AM 33.8 °F 26.4 °F 32.0 °F 93% 29.74 in 6.2 mi WNW 9.2 mph - N/A   Mostly Cloudy
4:55 AM 35.6 °F 28.6 °F 33.8 °F 93% 29.74 in 6.2 mi NW 9.2 mph - N/A   Overcast
5:25 AM 33.8 °F 26.4 °F 32.0 °F 93% 29.74 in 6.2 mi NW 9.2 mph - N/A   Mostly Cloudy
5:55 AM 33.8 °F 27.0 °F 32.0 °F 93% 29.77 in 6.2 mi WNW 8.1 mph - N/A   Partly Cloudy
6:25 AM 32.0 °F 25.6 °F 30.2 °F 93% 29.77 in 6.2 mi WNW 6.9 mph - N/A   Partly Cloudy
6:55 AM 32.0 °F 25.6 °F 30.2 °F 93% 29.77 in 6.2 mi WNW 6.9 mph - N/A   Scattered Clouds
7:25 AM 32.0 °F 26.4 °F 30.2 °F 93% 29.77 in 6.2 mi WNW 5.8 mph - N/A   Partly Cloudy
7:55 AM 30.2 °F 26.7 °F 30.2 °F 100% 29.80 in 6.2 mi WNW 3.5 mph - N/A   Scattered Clouds
8:25 AM 30.2 °F 25.4 °F 30.2 °F 100% 29.80 in 6.2 mi NW 4.6 mph - N/A   Unknown
8:55 AM 30.2 °F - 30.2 °F 100% 29.80 in 6.2 mi WNW 2.3 mph - N/A   Partly Cloudy
9:25 AM 30.2 °F - 28.4 °F 93% 29.80 in 6.2 mi West 1.2 mph - N/A   Partly Cloudy
9:55 AM 32.0 °F - 30.2 °F 93% 29.83 in 6.2 mi West 1.2 mph - N/A   Unknown
10:25 AM 33.8 °F 29.6 °F 32.0 °F 93% 29.83 in 6.2 mi WNW 4.6 mph - N/A   Scattered Clouds
10:55 AM 33.8 °F 28.6 °F 33.8 °F 100% 29.83 in 6.2 mi WNW 5.8 mph - N/A   Mostly Cloudy
11:25 AM 37.4 °F 31.4 °F 33.8 °F 87% 29.83 in 6.2 mi WNW 8.1 mph - N/A   Scattered Clouds
11:55 AM 37.4 °F 31.4 °F 32.0 °F 81% 29.83 in 6.2 mi WNW 8.1 mph - N/A   Overcast
12:25 PM 37.4 °F 30.8 °F 32.0 °F 81% 29.83 in 6.2 mi NW 9.2 mph - N/A   Overcast
12:55 PM 35.6 °F 29.9 °F 32.0 °F 87% 29.83 in 6.2 mi WNW 6.9 mph - N/A   Mostly Cloudy
1:25 PM 35.6 °F 29.9 °F 33.8 °F 93% 29.83 in 6.2 mi WNW 6.9 mph - N/A   Mostly Cloudy
1:55 PM 37.4 °F 32.1 °F 33.8 °F 87% 29.83 in 6.2 mi NW 6.9 mph - N/A   Overcast
2:25 PM 37.4 °F 32.1 °F 33.8 °F 87% 29.83 in 6.2 mi NW 6.9 mph - N/A   Overcast
2:55 PM 37.4 °F 31.4 °F 33.8 °F 87% 29.83 in 6.2 mi NW 8.1 mph - N/A   Mostly Cloudy
3:25 PM 37.4 °F 32.8 °F 32.0 °F 81% 29.83 in 6.2 mi NW 5.8 mph - N/A   Scattered Clouds
3:55 PM 37.4 °F 30.8 °F 33.8 °F 87% 29.83 in 6.2 mi WNW 9.2 mph - N/A   Overcast
4:25 PM 35.6 °F 28.6 °F 33.8 °F 93% 29.83 in 6.2 mi WNW 9.2 mph - N/A   Mostly Cloudy
4:55 PM 37.4 °F 32.1 °F 33.8 °F 87% 29.83 in 6.2 mi WNW 6.9 mph - N/A   Mostly Cloudy
5:25 PM 33.8 °F 25.8 °F 32.0 °F 93% 29.86 in 0.8 mi NW 10.4 mph 26.5 mph N/A Rain , Snow Rain Showers
5:55 PM 33.8 °F 30.8 °F 32.0 °F 93% 29.86 in 6.2 mi WNW 3.5 mph - N/A   Mostly Cloudy
6:21 PM 33.8 °F 28.6 °F 32.0 °F 93% 29.86 in 6.2 mi West 5.8 mph - N/A   Overcast
6:25 PM 33.8 °F 28.6 °F 32.0 °F 93% 29.86 in 6.2 mi West 5.8 mph - N/A   Overcast
6:55 PM 33.8 °F 28.6 °F 32.0 °F 93% 29.86 in 6.2 mi West 5.8 mph - N/A   Mostly Cloudy
7:25 PM 33.8 °F 28.6 °F 32.0 °F 93% 29.86 in 6.2 mi West 5.8 mph - N/A   Mostly Cloudy
7:55 PM 33.8 °F 29.6 °F 33.8 °F 100% 29.86 in 6.2 mi West 4.6 mph - N/A   Overcast
8:25 PM 33.8 °F 28.6 °F 33.8 °F 100% 29.86 in 5.6 mi WSW 5.8 mph - N/A   Mostly Cloudy
8:55 PM 32.0 °F 26.4 °F 32.0 °F 100% 29.86 in 6.2 mi WSW 5.8 mph - N/A   Overcast
9:25 PM 32.0 °F 27.5 °F 32.0 °F 100% 29.86 in 5.6 mi WSW 4.6 mph - N/A   Overcast
9:55 PM 32.0 °F 26.4 °F 30.2 °F 93% 29.86 in 5.0 mi SW 5.8 mph - N/A   Overcast
10:25 PM 32.0 °F 25.6 °F 32.0 °F 100% 29.86 in 5.6 mi WSW 6.9 mph - N/A   Mostly Cloudy
10:55 PM 33.8 °F 27.7 °F 32.0 °F 93% 29.86 in 3.7 mi West 6.9 mph - N/A   Mostly Cloudy
11:25 PM 32.0 °F 25.6 °F 32.0 °F 100% 29.86 in - WSW 6.9 mph - N/A Snow Light Snow
11:55 PM 32.0 °F 27.5 °F 32.0 °F 100% 29.86 in 1.6 mi West 4.6 mph - N/A Snow Light Snow